RH
86 99 96 86 90 89 77 95 95 87 87 86 87 88 75 74 61 62 59 58 55 51 47 47 46 77 94 93 96 91 94 93 94 98 95 94 95 89 88 91 77 76 74 73
96 100 82 80 82 86 78 93 97 88 87 78 86 88 80 83 73 58 56 55 56 53 50 45 46 43 90 93 96 92 90 90 82 87 85 89 95 95 80 80 74 76 76 73
83 85 81 81 89 94 71 91 96 93 88 84 88 89 87 84 72 61 58 55 55 53 49 47 47 45 44 89 96 92 86 85 84 84 94 97 96 96 92 89 85 85 83 82
86 78 82 90 100 72 74 60 66 82 79 94 84 95 75 72 69 66 68 68 61 56 53 50 48 50 45 49 89 94 94 94 94 96 97 95 97 96 95 95 96 90 85 88
95 89 85 96 93 63 79 70 63 69 89 90 92 95 70 69 71 65 62 62 63 59 55 51 49 50 47 43 56 92 95 96 95 96 94 96 97 97 99 98 93 92 92 92
90 84 86 88 71 70 69 83 90 86 97 99 88 87 64 67 73 62 57 62 61 59 58 52 48 53 52 60 67 85 93 96 96 98 97 97 95 98 98 98 98 98 97 96
96 93 83 93 80 73 70 75 99 98 99 97 82 86 67 50 47 60 64 56 47 47 52 53 53 59 61 66 64 79 94 94 94 96 98 99 98 96 93 95 96 96 95 91
96 100 96 79 87 88 78 72 89 90 95 90 73 88 53 44 46 44 46 49 49 49 51 56 69 66 71 69 73 77 81 85 83 92 94 93 98 98 97 95 94 91 87 84
98 99 87 80 79 74 86 84 61 75 79 81 69 61 47 48 52 52 53 54 56 55 55 52 54 73 74 74 75 74 73 73 74 74 79 90 94 94 93 93 89 85 84 85
84 98 83 81 66 63 60 54 72 85 80 74 70 71 63 58 58 54 58 58 59 60 60 62 64 65 78 82 83 80 78 74 74 76 80 79 81 80 81 83 86 83 81 80
85 83 87 80 91 93 68 73 72 73 79 82 74 58 50 48 58 60 60 58 62 63 66 69 71 72 78 84 87 86 81 76 76 78 78 79 78 75 71 71 73 76 75 77
83 87 89 94 84 84 86 80 68 80 77 84 76 61 51 56 54 57 64 62 63 63 64 66 69 71 73 80 86 87 87 86 81 80 77 75 75 76 71 70 75 74 75 75
74 89 95 81 70 73 82 75 72 71 79 84 81 68 59 68 71 69 70 71 69 69 69 70 70 71 72 74 79 87 88 87 85 85 83 82 79 79 77 75 70 71 71 74
68 84 78 88 76 82 88 80 72 75 88 82 74 73 78 77 75 73 75 78 78 74 71 72 73 78 76 75 77 80 84 88 87 86 86 86 86 84 83 81 80 78 80 85
69 87 86 81 78 81 82 80 72 81 67 75 65 64 68 76 79 82 81 65 61 60 61 63 66 72 78 76 75 73 76 86 87 88 88 88 87 86 84 84 87 87 89 89
79 96 82 89 68 71 80 74 75 75 73 71 68 76 67 77 72 69 68 66 67 66 63 63 65 67 69 73 78 80 77 78 89 90 89 87 87 88 88 90 91 92 92 92
81 88 90 93 76 65 78 71 77 76 80 78 82 75 75 68 60 72 74 72 74 73 69 70 71 74 73 70 72 84 82 81 90 91 90 87 88 90 91 92 94 94 94 94
83 88 90 93 78 81 68 73 66 78 72 71 65 64 63 65 64 73 75 84 81 76 74 75 77 76 76 74 76 82 82 85 88 92 91 89 89 91 93 95 95 95 96 96
78 87 94 88 91 70 74 73 76 79 82 69 68 71 71 70 78 82 76 78 81 81 79 78 80 79 81 79 77 86 88 92 93 93 92 90 90 91 94 96 96 96 97 97
69 74 83 90 89 86 68 75 66 73 83 76 73 80 83 77 81 71 80 79 76 77 78 80 77 81 84 81 85 92 90 92 93 94 92 90 92 91 93 95 96 96 96 99
82 86 88 89 92 79 68 63 67 77 70 80 80 84 88 84 76 79 80 78 76 77 77 77 81 86 86 84 93 93 91 92 90 94 91 92 93 92 93 96 97 98 99 99
85 90 91 91 94 88 67 72 76 77 87 85 86 88 90 89 86 83 80 82 79 78 77 76 78 82 84 90 87 92 94 86 92 93 93 93 94 94 94 96 99 99 99 99
84 75 84 82 84 82 90 84 86 83 85 88 88 89 91 92 91 89 88 84 79 76 72 68 71 82 78 81 74 88 89 90 92 94 93 93 95 96 96 97 99 99 99 98
85 80 84 81 85 92 91 89 88 86 86 86 87 89 89 94 93 91 85 79 75 74 80 68 74 82 80 84 81 77 79 90 93 95 94 95 96 98 98 98 98 98 98 98
83 78 82 87 94 92 88 88 87 86 84 86 86 88 91 93 90 90 89 83 79 79 75 72 75 78 78 76 82 82 78 84 90 95 96 96 97 96 99 97 95 97 90 88
76 78 80 81 79 82 85 87 84 83 84 83 87 86 85 89 89 88 90 84 80 79 76 77 77 77 77 75 76 81 80 78 92 93 94 94 98 98 97 98 98 89 87 88
Wind_Speed
2 3 4 4 3 8 10 9 5 6 7 1 7 5 6 6 7 6 5 4 4 6 4 4 4 6 5 6 10 13 11 10 7 3 8 8 8 4 2 4 6 7 7 8
1 1 6 3 5 7 10 10 6 7 9 6 1 5 4 9 10 7 6 7 7 4 4 6 6 5 6 7 8 9 11 12 12 9 5 4 4 4 2 3 5 5 6 6
2 3 7 4 5 9 11 13 11 6 6 6 3 2 5 9 12 8 6 5 5 7 7 6 7 7 6 7 7 8 11 12 9 6 4 3 2 2 3 2 2 1 3 4
2 7 9 5 3 13 7 12 15 16 9 2 3 4 3 13 14 6 6 5 6 6 5 6 6 6 7 9 7 6 3 5 3 5 3 4 3 4 3 4 3 4 4 4
2 6 6 6 6 2 3 7 9 10 5 6 4 2 5 4 6 10 7 9 7 7 6 6 8 7 7 8 7 5 4 5 5 6 8 6 4 2 2 3 4 5 6 5
4 4 2 2 4 4 8 20 11 6 4 2 6 4 5 2 5 5 5 6 6 6 6 5 6 6 6 2 4 3 5 5 4 4 6 11 10 7 4 4 4 2 2 2
4 3 4 1 4 7 7 4 3 4 1 2 4 4 6 7 6 4 2 5 7 7 6 4 6 3 5 4 4 3 4 3 2 2 2 3 4 5 9 9 7 6 3 2
4 2 3 1 3 5 3 2 4 4 2 2 2 4 2 3 3 5 7 7 8 8 7 7 7 2 2 4 4 3 3 3 3 1 2 3 3 2 1 5 5 5 3 3
2 4 3 3 2 4 2 2 2 7 2 4 2 1 2 4 7 9 9 10 9 9 9 8 8 6 4 4 3 1 2 3 2 2 1 3 2 3 3 3 4 6 7 6
4 5 6 5 1 3 4 5 3 3 3 3 2 2 3 2 4 6 8 8 8 7 9 8 8 8 7 5 4 2 2 3 3 2 1 1 3 4 3 3 3 2 1 3
3 4 4 3 4 1 4 2 4 4 3 4 4 3 1 5 3 7 5 6 7 7 7 7 8 8 7 7 7 5 3 2 3 2 1 2 2 4 6 5 3 4 5 2
0 5 5 2 2 2 1 1 4 5 3 2 3 2 8 9 6 7 7 6 6 7 7 7 7 7 8 7 6 5 5 5 4 4 4 4 3 2 2 4 6 5 5 4
2 2 4 8 6 3 1 1 2 5 3 1 5 3 6 7 8 6 6 6 6 6 8 8 9 9 9 10 9 7 5 5 6 4 4 4 5 5 5 5 5 5 5 4
5 4 4 6 5 2 2 3 3 5 4 3 3 4 1 4 6 5 6 6 6 6 8 8 8 7 7 7 7 8 8 6 4 3 4 5 5 6 5 5 4 4 4 5
5 5 4 5 3 2 2 2 5 3 4 5 5 7 4 5 4 3 4 6 8 10 10 9 9 9 8 9 10 9 8 6 5 6 6 7 6 5 5 5 4 4 4 4
4 1 3 4 5 5 3 3 3 2 1 3 6 3 4 4 5 5 6 7 8 7 9 9 7 8 9 8 9 8 10 9 5 6 7 6 6 6 6 5 6 6 5 5
3 4 3 2 5 5 4 1 1 3 5 1 5 2 5 3 4 4 3 5 5 6 8 10 10 8 8 10 10 10 9 8 7 7 7 7 7 7 7 6 6 6 6 4
4 4 3 2 3 1 3 2 2 9 3 4 5 4 4 1 3 5 3 1 3 5 7 8 8 11 11 10 11 10 8 9 8 8 7 7 8 7 6 6 6 6 5 5
4 4 3 4 2 4 3 5 4 4 4 4 6 3 1 4 3 3 2 0 4 5 6 7 7 9 11 11 11 10 12 8 9 8 7 7 8 8 8 8 7 5 5 5
5 6 5 1 3 5 4 2 1 2 5 6 5 3 1 3 1 3 3 4 7 7 7 8 10 9 9 11 8 10 11 10 9 8 6 6 7 8 9 7 7 4 4 4
3 3 3 2 2 6 4 3 0 4 5 5 4 3 1 2 3 4 6 5 6 6 7 7 7 7 9 9 6 9 10 10 10 7 6 6 7 9 8 7 5 5 5 5
5 4 3 2 0 7 2 2 6 2 3 4 3 2 2 4 6 6 6 6 8 9 10 9 10 8 8 7 6 10 10 11 8 7 5 4 5 4 6 8 5 5 6 5
2 5 5 7 5 1 2 1 3 2 4 3 1 2 4 5 5 8 9 10 9 12 12 11 13 12 12 9 11 12 12 11 9 6 6 4 4 5 5 7 7 5 6 5
1 2 2 2 1 1 1 2 2 2 3 3 3 2 3 4 5 6 7 9 9 9 11 11 12 14 15 12 13 13 13 11 8 7 6 4 4 5 5 4 5 5 5 5
3 3 4 1 1 1 5 3 3 3 3 2 0 1 3 3 6 5 6 8 8 9 9 9 10 10 13 14 14 13 14 12 9 6 5 5 4 5 5 5 6 6 6 8
4 6 5 6 5 4 3 6 4 4 2 3 2 3 3 2 6 5 6 7 7 9 9 10 10 11 12 13 12 12 12 13 12 8 5 5 4 4 5 5 5 12 12 15
Wind_Direction
97 271 168 96 35 348 124 97 75 91 133 70 172 296 288 339 330 281 261 227 219 213 247 237 248 200 234 214 174 174 176 195 184 169 205 210 214 199 194 195 207 190 201 192
267 97 102 55 12 342 130 130 65 99 136 90 259 299 322 300 300 261 231 246 237 255 255 262 246 193 199 228 219 187 193 196 189 183 172 178 169 201 173 196 197 194 202 198
204 148 139 95 34 307 183 148 154 121 140 68 240 264 186 260 250 238 239 224 215 234 247 245 248 234 212 209 217 220 210 207 206 188 138 113 97 88 131 146 145 146 206 196
210 165 110 93 5 177 137 165 157 149 129 225 114 313 234 217 248 242 257 231 217 217 249 259 251 235 237 230 198 212 222 250 259 151 213 209 201 178 189 152 123 101 70 76
50 146 109 71 241 266 96 82 119 154 134 131 135 277 271 25 282 266 253 243 241 243 236 259 262 249 235 238 209 180 197 222 218 181 180 187 196 224 154 82 141 147 141 134
69 69 41 121 349 52 109 81 57 54 41 99 160 168 296 216 233 264 231 217 241 266 279 268 268 264 244 201 158 169 191 210 200 222 216 191 198 164 153 133 188 187 118 123
52 18 339 254 90 9 99 116 74 48 33 100 176 135 259 315 314 248 63 65 46 37 17 298 263 282 279 235 188 188 214 224 183 226 303 275 257 187 181 163 194 161 153 245
126 144 327 276 105 141 101 101 132 129 165 140 213 205 267 297 349 60 74 82 65 50 32 32 356 335 328 5 21 21 358 345 305 283 286 290 264 231 236 176 176 134 212 158
96 79 217 44 94 106 245 338 114 106 9 76 259 322 47 17 32 46 52 54 39 30 20 17 16 26 27 36 79 139 282 278 306 343 305 248 224 182 159 213 185 153 193 189
154 84 35 334 114 25 154 164 65 5 131 104 336 335 217 131 90 67 49 58 45 35 25 13 19 17 14 30 9 16 351 309 313 297 193 124 115 106 111 129 170 149 1 66
107 78 316 73 6 42 27 74 57 102 58 138 131 262 309 194 98 96 59 58 46 34 21 8 11 6 11 7 9 352 339 302 299 266 260 168 143 124 119 103 56 119 105 101
223 99 71 153 268 237 274 302 124 118 221 54 119 313 328 120 127 93 72 63 59 50 32 23 20 16 20 6 356 342 330 310 272 244 210 211 189 170 181 147 151 141 137 148
156 57 76 354 359 1 351 328 96 95 70 107 108 273 5 67 67 47 69 52 48 35 30 20 19 14 2 356 351 340 321 298 295 273 243 217 192 181 179 169 165 163 153 159
74 68 129 160 196 152 180 159 93 98 81 171 165 134 344 72 86 36 39 39 38 26 24 15 10 360 351 346 342 336 326 308 283 236 227 232 219 200 191 183 178 161 149 145
76 91 73 55 53 127 183 199 163 123 174 137 184 137 189 155 119 61 49 37 29 17 12 5 357 344 337 339 333 334 325 297 270 253 229 227 218 203 190 183 170 143 134 129
15 134 91 18 10 41 89 60 109 78 136 83 127 165 139 123 105 84 55 38 23 359 350 344 332 325 326 325 318 311 314 312 248 235 232 218 203 195 194 178 161 149 145 144
64 118 76 299 350 353 5 318 298 114 38 349 187 212 135 68 53 136 85 49 10 340 330 326 320 313 311 311 312 302 300 300 283 249 219 206 189 194 189 172 159 164 168 162
109 81 71 183 22 39 250 323 193 119 78 66 89 90 96 128 261 149 127 82 325 311 319 314 308 316 317 310 305 300 303 297 286 249 230 199 188 184 176 171 175 167 164 183
55 109 89 118 172 268 158 200 174 174 216 206 150 156 345 339 93 270 124 321 292 290 298 299 298 303 306 304 303 309 311 303 300 277 238 214 184 180 172 187 180 176 165 172
61 79 111 136 126 223 252 159 37 122 276 162 152 150 337 349 153 260 332 331 324 302 294 297 302 300 303 305 307 315 308 312 305 285 250 209 182 177 186 179 176 159 163 177
63 24 133 152 193 283 231 181 37 127 236 160 158 175 222 253 228 316 310 289 272 273 276 274 280 285 287 299 315 318 313 303 301 292 255 204 194 184 179 163 154 157 172 162
156 142 199 92 96 278 93 105 172 146 57 141 166 193 261 277 293 296 303 308 323 323 322 323 324 315 295 306 322 322 315 307 304 300 278 243 207 182 165 162 151 158 168 181
201 181 186 177 217 309 335 314 54 114 144 150 142 21 347 330 332 333 331 331 336 329 325 330 327 328 324 333 334 323 316 316 311 308 291 256 195 179 165 160 165 161 180 186
239 165 146 91 66 68 350 46 79 91 97 95 69 28 6 322 316 313 314 327 326 327 330 326 335 325 326 334 328 322 317 315 310 300 290 260 208 194 175 161 168 178 183 189
206 126 142 291 303 356 260 242 164 98 104 119 62 277 292 299 307 304 312 312 312 313 313 324 316 314 316 321 319 318 319 318 308 292 279 254 224 205 192 199 189 191 199 195
189 180 166 223 188 163 233 166 149 161 218 244 260 289 288 264 281 288 287 286 294 299 308 311 307 308 308 310 310 316 321 325 317 296 276 250 227 213 205 199 213 222 216 212